Regional Weather Roundup
Issued by NWS Cleveland, OH

Home | Current Version | Previous Version | Graphics & Text | Print | Product List | Glossary On
Versions: 1 2 3 4 5 6 7 8 9 10 11 12 13 14 15 16 17 18 19 20 21 22 23 24 25 26 27 28 29 30 31 32 33 34 35 36 37 38 39 40 41 42 43 44 45 46 47 48 49 50
000
ASUS41 KCLE 250800
RWRCLE
OHIO REGIONAL WEATHER ROUNDUP
NATIONAL WEATHER SERVICE WILMINGTON, OH
300 AM EST SUN FEB 25 2018

NOTE: "FAIR" INDICATES FEW OR NO CLOUDS BELOW 12,000 FEET WITH NO
SIGNIFICANT WEATHER AND/OR OBSTRUCTIONS TO VISIBILITY.

OHZ001>008-015>018-024>027-034-035-043-044-250900-
   NORTHWEST OHIO

CITY           SKY/WX    TMP DP  RH WIND       PRES   REMARKS
DEFIANCE       CLOUDY    50  48  93 S8        29.53F
FINDLAY        CLOUDY    53  49  86 S20       29.56F
TOLEDO EXPRESS LGT RAIN  44  44 100 E7        29.55F FOG
TOLEDO EXEC    CLOUDY    41  40  96 VRB5      29.57S FOG
LIMA           CLOUDY    55  52  89 S17       29.58S
$$

OHZ009>014-019>023-028>033-038-089-250900-
   NORTHEAST OHIO

CITY           SKY/WX    TMP DP  RH WIND       PRES   REMARKS
CLE-HOPKINS    CLOUDY    53  50  89 SE22      29.60F
CLE-LAKEFRONT  MOCLDY    52  49  89 SE24G33   29.56F
CUY CO. ARPT   NOT AVBL
LORAIN-ELYRIA  FAIR      51  46  83 S21G30    29.57F
ASHTABULA      RAIN      47  46  97 VRB6      29.71F FOG
AKRON-CANTON   LGT RAIN  53  50  89 SE17G28   29.61F FOG
WOOSTER        NOT AVBL
MANSFIELD      CLOUDY    51  51 100 S15       29.59F
YOUNGSTOWN     LGT RAIN  48  47  96 SE13G21   29.70F FOG
$$

OHZ042-051>053-060>062-070>072-077>081-250900-
  SOUTHWEST OHIO

CITY           SKY/WX    TMP DP  RH WIND       PRES   REMARKS
CINC-COVINGTON CLOUDY    59  56  89 SW15      29.69F
CINC-LUNKEN    MOCLDY    59  56  89 S18       29.69F
HAMILTON       CLOUDY    60  46  59 S14G20    29.67S
DAYTON         NOT AVBL
WRIGHT-PAT AFB CLOUDY    58  55  89 S18       29.64S
DAYTON GENERAL MOCLDY    59  55  87 S16G23    29.65F
WILMINGTON     LGT RAIN  58  56  93 S26G35    29.64F
$$

OHZ036-037-039>041-045>050-054>059-063>069-073>076-082>088-250900-
  CENTRAL AND SOUTHEAST OHIO

CITY           SKY/WX    TMP DP  RH WIND       PRES   REMARKS
COLUMBUS       LGT RAIN  58  56  93 SW13      29.67F
OSU AIRPORT    CLOUDY    57  56  96 S22G29    29.61F
BOLTON FIELD   LGT RAIN  57  55  94 S23G30    29.67F
RICKENBACK AFB NOT AVBL
NEWARK         LGT RAIN  59  56  89 S16       29.68F
MARION         CLOUDY    53  51  93 S15       29.63R
LANCASTER      LGT RAIN  59  56  89 SW13      29.73S
ZANESVILLE     LGT RAIN  62  55  77 SW12G26   29.72R
NEW PHILLY     LGT RAIN  55  53  93 S13G22    29.70F
$$




USA.gov is the U.S. government's official web portal to all federal, state and local government web resources and services.